Location: Ladysmith
(45.4630°N, 91.1040°W)
Time: 13:10:32
(UTC-05:00)

Amateur Radio Satellites - All Passes

Search period start: 27 May 2016 12:40
Search period end: 28 May 2016 12:40
Location: Ladysmith, 45.4630°N, 91.1040°W

Satellite Date Start Highest point End Downlink Frequencies (MHz)
Time Altitude Azimuth
BEESAT 3 27 May 12:42:01 12:45:55 63° 308° (NW) 12:49:53 437.485
ESTCUBE 1 27 May 12:48:23 12:52:57 81° 286° (WNW) 12:57:30 437.505/2401.250
BUGSAT 1 27 May 12:50:00 12:53:56 37° 262° (W) 12:57:50 437.445
50 SAT 27 May 12:53:01 12:56:45 81° 284° (WNW) 13:00:28 437.505
Oscar 19 27 May 13:00:15 13:05:09 44° 68° (ENE) 13:10:04 437.125/150
DANDE 27 May 13:00:54 13:06:27 81° 98° (E) 13:13:48 436.750
CUBEBUG 1 27 May 13:05:42 13:10:06 74° 285° (WNW) 13:14:26 437.445
DX 1 27 May 13:07:29 13:11:52 88° 292° (WNW) 13:16:13 434.975-435.025
CUSAT 1 27 May 13:09:34 13:15:53 51° 289° (WNW) 13:23:28 437.405
POPSAT HIP 1 27 May 13:11:19 13:12:46 11° 271° (W) 13:14:14 437.405
VELOX 1 27 May 13:11:51 13:16:16 68° 287° (WNW) 13:20:38 145.980
QB50P1 27 May 13:11:54 13:13:13 11° 271° (W) 13:14:31 145.935-145.965
Cosmos 2491 27 May 13:19:21 13:23:12 13° 50° (NE) 13:27:01 435.465 / 435.565
Gurwin Techsat 1B 27 May 13:21:03 13:25:38 31° 64° (ENE) 13:30:14 435.225
JAS-2 27 May 13:22:26 13:29:48 73° 258° (WSW) 13:37:43 435.910
SPROUT 27 May 13:34:00 13:38:17 90° 97° (E) 13:42:32 437.525
ITAMSAT 1 27 May 13:42:37 13:46:22 20° 60° (ENE) 13:50:06 435.822/435.867
BEESAT 2 27 May 13:44:55 13:48:26 29° 316° (NW) 13:51:56 435.950
AO-7 27 May 13:48:00 13:54:00 23° 48° (NE) 14:00:02 29.400- 29.500
AISAT 27 May 13:48:23 13:52:12 29° 294° (WNW) 13:55:58 437.250
UKube-1 27 May 13:57:38 14:01:32 33° 292° (WNW) 14:05:25 .
TISAT 1 27 May 13:59:14 14:03:17 46° 99° (E) 14:07:17 437.305
AIST 2 27 May 14:13:50 14:17:47 47° 120° (ESE) 14:21:47 435.215
AO-85 27 May 14:16:14 14:20:37 33° 42° (NE) 14:24:39 145.980
BEESAT 3 27 May 14:22:51 14:24:25 12° 328° (NNW) 14:25:59 437.485
ESTCUBE 1 27 May 14:27:58 14:28:59 11° 303° (WNW) 14:29:59 437.505/2401.250
SWISSCUBE 27 May 14:34:10 14:38:08 25° 94° (E) 14:42:03 437.505
ITUPSAT 1 27 May 14:40:11 14:44:10 25° 94° (E) 14:48:07 437.325
Oscar 19 27 May 14:40:18 14:44:37 26° 266° (W) 14:48:59 437.125/150
DANDE 27 May 14:45:59 14:50:32 21° 304° (NW) 14:55:52 436.750
DX 1 27 May 14:46:09 14:47:21 11° 303° (WNW) 14:48:33 434.975-435.025
CUSAT 1 27 May 14:57:31 15:00:15 12° 313° (NW) 15:03:04 437.405
Gurwin Techsat 1B 27 May 15:00:29 15:05:27 40° 262° (W) 15:10:27 435.225
BEESAT 27 May 15:03:31 15:08:05 42° 99° (E) 15:12:36 436.000
JAS-2 27 May 15:12:08 15:16:10 15° 278° (W) 15:20:19 435.910
SPROUT 27 May 15:12:35 15:13:34 11° 302° (WNW) 15:14:31 437.525
Cosmos 2491 27 May 15:13:44 15:22:23 58° 76° (ENE) 15:30:55 435.465 / 435.565
YUBILEINY 27 May 15:18:53 15:25:20 24° 79° (ENE) 15:31:48 435.215
ITAMSAT 1 27 May 15:20:16 15:25:22 61° 258° (WSW) 15:30:32 435.822/435.867
TISAT 1 27 May 15:35:46 15:38:36 18° 297° (WNW) 15:41:26 437.305
AO-7 27 May 15:37:21 15:45:38 83° 69° (ENE) 15:54:01 29.400- 29.500
AIST 2 27 May 15:53:06 15:56:30 24° 319° (NW) 15:59:55 435.215
AO-85 27 May 15:56:51 16:01:07 36° 244° (WSW) 16:05:03 145.980
KKS-1 27 May 16:02:36 16:06:03 22° 93° (E) 16:09:30 437.445
SWISSCUBE 27 May 16:11:34 16:16:03 41° 292° (WNW) 16:20:32 437.505
MOZHAYETS 4 27 May 16:16:30 16:20:18 25° 94° (E) 16:24:05
ITUPSAT 1 27 May 16:17:38 16:22:07 40° 292° (WNW) 16:26:36 437.325
Cosmos 2504 27 May 16:28:47 16:32:36 15° 75° (ENE) 16:36:30 435.465 / 435.565
HORYU 2 27 May 16:28:48 16:33:02 46° 70° (ENE) 16:37:16 437.375
STARS 27 May 16:38:31 16:42:14 26° 95° (E) 16:45:55 437.465
BEESAT 27 May 16:41:47 16:45:38 25° 296° (WNW) 16:49:30 436.000
BRITE-PL 27 May 16:43:47 16:46:45 15° 56° (ENE) 16:49:42 437.365/2234.400
RS-15 27 May 16:44:10 16:53:47 34° 104° (ESE) 17:03:48 29.354- 29.394
CUTE-I 27 May 16:56:35 16:59:42 16° 57° (ENE) 17:02:50 437.470
GOMX 1 27 May 17:10:18 17:12:10 12° 56° (NE) 17:14:00 467.674
Cosmos 2491 27 May 17:11:12 17:18:46 34° 277° (W) 17:26:18 435.465 / 435.565
YUBILEINY 27 May 17:12:27 17:21:09 78° 280° (W) 17:29:55 435.215
AO-7 27 May 17:33:05 17:39:19 23° 269° (W) 17:45:38 29.400- 29.500
PCSat 27 May 17:34:47 17:38:54 21° 38° (NE) 17:42:59 145.827
KKS-1 27 May 17:38:38 17:42:47 39° 291° (WNW) 17:46:54 437.445
LilacSat-2 27 May 17:40:57 17:43:59 23° 67° (ENE) 17:47:01 437.200
CUBESAT XI-V 27 May 17:41:34 17:45:18 23° 93° (E) 17:49:01 437.345
NOAA 15 27 May 17:43:09 17:48:17 52° 70° (ENE) 17:53:27 137.62
NOAA 18 27 May 17:45:17 17:50:30 48° 68° (ENE) 17:55:44 137.9125
Cubesat XI-IV 27 May 17:47:54 17:52:49 40° 67° (ENE) 17:57:47 437.490
MOZHAYETS 4 27 May 17:53:17 17:57:34 38° 291° (WNW) 18:01:51
DOVE 4 27 May 17:58:26 18:01:15 15° 60° (ENE) 18:04:01 437.250
HORYU 2 27 May 18:06:40 18:09:49 19° 267° (W) 18:12:59 437.375
STARS 27 May 18:14:44 18:18:37 32° 292° (WNW) 18:22:29 437.465
Cosmos 2504 27 May 18:17:20 18:24:33 83° 96° (E) 18:32:15 435.465 / 435.565
BRITE-PL 27 May 18:18:40 18:24:19 79° 75° (ENE) 18:30:02 437.365/2234.400
CUTE-I 27 May 18:33:44 18:39:03 84° 253° (WSW) 18:44:25 437.470
GOMX 1 27 May 18:43:53 18:49:20 69° 74° (ENE) 18:54:40 467.674
AUBIESAT-1 27 May 18:53:04 18:56:03 20° 61° (ENE) 18:58:52 437.475
RS-15 27 May 18:53:39 19:05:06 78° 309° (NW) 19:17:16 29.354- 29.394
CUTE 1.7 + AOD 2 27 May 18:56:36 18:58:22 12° 60° (ENE) 19:00:08 437.475
M-CUBED/EXP-1 PRIME 27 May 18:59:08 19:02:39 28° 64° (ENE) 19:05:58 437.505
HO-68 27 May 18:59:26 19:05:34 32° 59° (ENE) 19:11:41 435.675
STRAND 1 27 May 19:00:04 19:02:08 12° 87° (E) 19:04:13 437.568
YUBILEINY 27 May 19:13:53 19:19:35 19° 303° (WNW) 19:25:19 435.215
LilacSat-2 27 May 19:14:52 19:18:11 28° 264° (W) 19:21:30 437.200
PCSat 27 May 19:17:31 19:23:00 85° 239° (WSW) 19:28:24 145.827
CUBESAT XI-V 27 May 19:18:24 19:22:52 42° 290° (WNW) 19:27:17 437.345
O/OREOS (USA 219) 27 May 19:18:44 19:23:09 54° 62° (ENE) 19:27:31 437.305
COMPASS 1 27 May 19:18:51 19:20:05 11° 59° (ENE) 19:21:19 437.405
BEESAT 3 27 May 19:20:14 19:23:19 21° 40° (NE) 19:26:23 437.485
NOAA 15 27 May 19:24:13 19:28:21 23° 267° (W) 19:32:31 137.62
NOAA 18 27 May 19:26:55 19:31:24 26° 266° (W) 19:35:54 137.9125
Cubesat XI-IV 27 May 19:28:23 19:33:00 30° 265° (W) 19:37:38 437.490
DOVE 4 27 May 19:33:05 19:38:20 85° 257° (WSW) 19:43:22 437.250
UWE-3 27 May 19:49:21 19:50:27 11° 59° (ENE) 19:51:33 435.000/436.395/437.385
BRITE-PL 27 May 19:59:48 20:03:22 17° 273° (W) 20:06:59 437.365/2234.400
CANX-2 27 May 20:02:12 20:06:22 64° 74° (ENE) 20:10:33 2200.000
CINEMA 3 27 May 20:04:07 20:08:48 65° 74° (ENE) 20:13:17 145.822/145.860
SEEDS 27 May 20:05:03 20:09:01 43° 71° (ENE) 20:13:00 437.485
Cosmos 2504 27 May 20:13:44 20:19:03 21° 300° (WNW) 20:24:36 435.465 / 435.565
CUTE-I 27 May 20:18:13 20:19:54 11° 273° (W) 20:21:37 437.470
BEESAT 2 27 May 20:22:42 20:26:32 43° 49° (NE) 20:30:21 435.950
GOMX 1 27 May 20:24:07 20:27:50 18° 271° (W) 20:31:31 467.674
AUBIESAT-1 27 May 20:26:32 20:30:22 38° 255° (WSW) 20:33:59 437.475
CUTE 1.7 + AOD 2 27 May 20:29:26 20:33:37 75° 257° (WSW) 20:37:52 437.475
M-CUBED/EXP-1 PRIME 27 May 20:33:35 20:37:10 27° 257° (WSW) 20:40:33 437.505
Oscar 11 27 May 20:34:24 20:37:50 24° 66° (ENE) 20:41:18 145.826/435.025
STRAND 1 27 May 20:36:50 20:42:01 88° 288° (WNW) 20:47:10 437.568
HO-68 27 May 20:45:54 20:52:54 59° 258° (WSW) 20:59:58 435.675
ZACube-1 27 May 20:48:32 20:52:10 28° 68° (ENE) 20:55:46 437.345
COMPASS 1 27 May 20:50:52 20:55:00 82° 258° (WSW) 20:59:12 437.405
AAUSAT CUBESAT 2 27 May 20:53:19 20:57:27 86° 74° (ENE) 21:01:38 437.432
CUBEBUG 2 27 May 20:53:33 20:57:53 68° 75° (ENE) 21:02:08 437.445
PRISM 27 May 20:55:25 20:59:02 27° 96° (E) 21:02:37 437.425
AIST 2 27 May 20:55:57 20:57:50 13° 31° (NNE) 20:59:42 435.215
AIST 1 27 May 20:56:52 21:00:31 26° 89° (E) 21:04:11
BEESAT 3 27 May 20:57:26 21:01:17 51° 239° (WSW) 21:05:06 437.485
O/OREOS (USA 219) 27 May 20:59:15 21:02:06 17° 260° (W) 21:04:56 437.305
PCSat 27 May 21:03:13 21:05:31 13° 258° (WSW) 21:07:50 145.827
Cosmos 2499 27 May 21:04:44 21:07:13 12° 71° (ENE) 21:09:44 435.465 / 435.565
GONETS M04 27 May 21:08:19 21:15:23 28° 81° (E) 21:22:26
RS-15 27 May 21:09:21 21:19:51 36° 338° (NNW) 21:30:50 29.354- 29.394
ISS 27 May 21:13:08 21:15:15 16° 135° (SE) 21:17:22 145.825
DOVE 4 27 May 21:15:03 21:16:39 11° 273° (W) 21:18:15 437.250
UWE-3 27 May 21:22:00 21:26:18 86° 257° (WSW) 21:30:32 435.000/436.395/437.385
DELFI C3 27 May 21:23:08 21:26:44 34° 70° (ENE) 21:30:23 145.870
FUNcube-1 27 May 21:25:56 21:30:06 67° 75° (ENE) 21:34:15 145.935
CANX-2 27 May 21:40:49 21:42:40 13° 271° (W) 21:44:30 2200.000
SEEDS 27 May 21:42:05 21:44:56 18° 269° (W) 21:47:50 437.485
CINEMA 3 27 May 21:43:42 21:46:19 15° 270° (W) 21:48:52 145.822/145.860
DANDE 27 May 21:55:09 22:01:14 21° 57° (ENE) 22:07:05 436.750
CUSAT 1 27 May 22:00:32 22:07:34 34° 64° (ENE) 22:13:40 437.405
BEESAT 2 27 May 22:01:06 22:04:08 21° 246° (WSW) 22:07:08 435.950
Oscar 11 27 May 22:09:52 22:13:49 35° 263° (W) 22:17:47 145.826/435.025
ESTCUBE 1 27 May 22:15:24 22:17:59 15° 60° (ENE) 22:20:35 437.505/2401.250
STRAND 1 27 May 22:17:50 22:20:27 14° 303° (WNW) 22:23:03 437.568
ZACube-1 27 May 22:24:48 22:28:26 27° 265° (W) 22:32:02 437.345
CUBEBUG 1 27 May 22:29:37 22:32:01 15° 60° (ENE) 22:34:26 437.445
PRISM 27 May 22:30:42 22:34:19 29° 293° (WNW) 22:37:54 437.425
HUMSAT D 27 May 22:30:56 22:35:00 90° 67° (ENE) 22:39:06 437.325/437.525
DX 1 27 May 22:31:34 22:33:33 13° 59° (ENE) 22:35:32 434.975-435.025
AIST 2 27 May 22:33:01 22:37:10 62° 52° (NE) 22:41:16 435.215
CUBEBUG 2 27 May 22:33:11 22:34:57 12° 271° (W) 22:36:42 437.445
PHONESAT 2.4 27 May 22:33:23 22:35:16 15° 157° (SSE) 22:37:09 2401.200-2431.200
AIST 1 27 May 22:34:06 22:38:00 31° 287° (WNW) 22:41:56
VELOX 1 27 May 22:36:30 22:39:20 17° 61° (ENE) 22:42:12 145.980
ANTELSAT 27 May 22:38:11 22:41:26 21° 93° (E) 22:44:42 437.575/2403.000
ISS 27 May 22:48:03 22:51:19 80° 332° (NNW) 22:54:36 145.825
Cosmos 2499 27 May 22:51:23 22:58:34 68° 94° (E) 23:06:20 435.465 / 435.565
SPROUT 27 May 22:57:23 22:58:21 11° 58° (ENE) 22:59:19 437.525
DELFI C3 27 May 22:58:43 23:01:43 20° 267° (W) 23:04:44 145.870
GONETS M04 27 May 23:02:42 23:11:27 69° 281° (WNW) 23:20:14
FUNcube-1 27 May 23:05:14 23:06:48 12° 271° (W) 23:08:22 145.935
AISAT 27 May 23:11:06 23:15:11 36° 69° (ENE) 23:19:18 437.250
UKube-1 27 May 23:18:22 23:22:06 29° 66° (ENE) 23:25:51 .
QB50P2 27 May 23:20:02 23:21:12 11° 88° (E) 23:22:21 145.880/145.840
POLYITAN 1 27 May 23:22:23 23:23:40 11° 89° (E) 23:24:55 437.675
RS-15 27 May 23:26:27 23:36:56 32° 13° (NNE) 23:47:38 29.354- 29.394
UNISAT 6 27 May 23:32:48 23:37:07 77° 102° (ESE) 23:41:29 437.425
50 SAT 27 May 23:33:05 23:36:39 61° 75° (ENE) 23:40:18 437.505
NANOSAT C BR1 27 May 23:34:55 23:37:19 15° 91° (E) 23:39:40 145.865
DANDE 27 May 23:36:59 23:45:31 79° 78° (ENE) 23:53:16 436.750
TIGRISAT 27 May 23:40:18 23:44:36 87° 98° (E) 23:48:57 435.000
CUSAT 1 27 May 23:42:31 23:50:09 57° 267° (W) 23:56:33 437.405
ESTCUBE 1 27 May 23:49:45 23:54:15 68° 258° (WSW) 23:58:48 437.505/2401.250
CUBEBUG 1 28 May 00:03:20 00:07:46 70° 258° (WSW) 00:12:13 437.445
DX 1 28 May 00:04:45 00:09:08 79° 258° (WSW) 00:13:33 434.975-435.025
PHONESAT 2.4 28 May 00:08:40 00:11:29 30° 174° (S) 00:14:18 2401.200-2431.200
VELOX 1 28 May 00:10:58 00:15:22 59° 259° (W) 00:19:48 145.980
DUCHIFAT 1 28 May 00:12:18 00:16:08 34° 97° (E) 00:19:55 145.980
AIST 2 28 May 00:12:46 00:15:10 15° 250° (WSW) 00:17:34 435.215
ANTELSAT 28 May 00:14:17 00:18:18 40° 290° (WNW) 00:22:22 437.575/2403.000
ISS 28 May 00:25:11 00:28:06 29° 351° (N) 00:31:01 145.825
SPROUT 28 May 00:29:18 00:33:36 89° 87° (E) 00:37:56 437.525
BUGSAT 1 28 May 00:29:48 00:33:09 24° 95° (E) 00:36:27 437.445
JAS-2 28 May 00:32:02 00:36:53 18° 84° (E) 00:41:24 435.910
SO-50 28 May 00:45:47 00:50:31 51° 120° (ESE) 00:55:17 436.795
Cosmos 2499 28 May 00:46:30 00:52:29 26° 297° (WNW) 00:58:51 435.465 / 435.565
AISAT 28 May 00:48:05 00:51:45 24° 266° (W) 00:55:26 437.250
POPSAT HIP 1 28 May 00:50:30 00:54:43 83° 287° (WNW) 00:58:55 437.405
QB50P1 28 May 00:50:54 00:55:07 81° 285° (WNW) 00:59:18 145.935-145.965
TISAT 1 28 May 00:52:43 00:56:46 46° 71° (ENE) 01:00:50 437.305
QB50P2 28 May 00:53:18 00:57:31 73° 285° (WNW) 01:01:42 145.880/145.840
UKube-1 28 May 00:54:18 00:58:06 29° 264° (W) 01:01:55 .
POLYITAN 1 28 May 00:55:46 00:59:57 71° 286° (WNW) 01:04:08 437.675
GONETS M04 28 May 01:05:07 01:10:12 16° 306° (NW) 01:15:18
NANOSAT C BR1 28 May 01:09:17 01:13:23 54° 288° (WNW) 01:17:27 145.865
UNISAT 6 28 May 01:11:28 01:13:16 12° 300° (WNW) 01:15:04 437.425
Oscar 19 28 May 01:11:30 01:13:35 12° 87° (E) 01:15:39 437.125/150
TIGRISAT 28 May 01:19:26 01:20:40 11° 301° (WNW) 01:21:53 435.000
DANDE 28 May 01:20:57 01:27:29 26° 278° (W) 01:33:38 436.750
YUBILEINY 28 May 01:25:21 01:29:28 14° 51° (NE) 01:33:33 435.215
CUSAT 1 28 May 01:28:58 01:30:17 11° 289° (WNW) 01:31:35 437.405
RS-15 28 May 01:40:26 01:52:36 61° 44° (NE) 02:04:47 29.354- 29.394
SWISSCUBE 28 May 01:42:35 01:46:56 36° 67° (ENE) 01:51:17 437.505
PHONESAT 2.4 28 May 01:45:06 01:47:51 27° 190° (S) 01:50:34 2401.200-2431.200
DUCHIFAT 1 28 May 01:48:20 01:51:40 23° 294° (WNW) 01:54:59 145.980
ITUPSAT 1 28 May 01:48:53 01:53:15 37° 67° (ENE) 01:57:38 437.325
ISS 28 May 02:02:10 02:05:08 31° 12° (NNE) 02:08:06 145.825
BUGSAT 1 28 May 02:05:00 02:08:32 29° 292° (WNW) 02:12:02 437.445
BEESAT 28 May 02:11:51 02:16:32 63° 72° (ENE) 02:21:16 436.000
JAS-2 28 May 02:15:24 02:23:02 90° 241° (WSW) 02:29:47 435.910
SO-50 28 May 02:26:58 02:31:15 29° 319° (NW) 02:35:33 436.795
Cosmos 2491 28 May 02:28:04 02:30:54 12° 70° (ENE) 02:33:44 435.465 / 435.565
TISAT 1 28 May 02:29:51 02:32:40 17° 268° (W) 02:35:31 437.305
Oscar 19 28 May 02:48:25 02:53:37 88° 286° (WNW) 02:58:45 437.125/150
KKS-1 28 May 03:02:36 03:06:23 27° 66° (ENE) 03:10:10 437.445
Gurwin Techsat 1B 28 May 03:13:53 03:19:13 69° 102° (ESE) 03:24:30 435.225
YUBILEINY 28 May 03:19:50 03:28:29 60° 76° (ENE) 03:37:08 435.215
MOZHAYETS 4 28 May 03:20:26 03:24:24 30° 67° (ENE) 03:28:23
SWISSCUBE 28 May 03:20:46 03:24:47 27° 265° (W) 03:28:51 437.505
PHONESAT 2.4 28 May 03:22:53 03:24:00 11° 206° (SSW) 03:25:06 2401.200-2431.200
ITUPSAT 1 28 May 03:27:10 03:31:10 27° 265° (W) 03:35:12 437.325
ITAMSAT 1 28 May 03:30:51 03:35:45 39° 98° (E) 03:40:38 435.822/435.867
STARS 28 May 03:37:06 03:41:00 32° 67° (ENE) 03:44:55 437.465
AO-7 28 May 03:37:25 03:43:47 23° 91° (E) 03:50:07 29.400- 29.500
ISS 28 May 03:38:34 03:41:50 80° 213° (SSW) 03:45:05 145.825
BEESAT 28 May 03:51:52 03:54:45 16° 270° (W) 03:57:40 436.000
RS-15 28 May 03:53:25 04:05:00 51° 249° (WSW) 04:16:33 29.354- 29.394
JAS-2 28 May 04:01:32 04:06:58 22° 307° (NW) 04:12:03 435.910
Cosmos 2504 28 May 04:06:05 04:13:45 37° 70° (ENE) 04:21:43 435.465 / 435.565
Cosmos 2491 28 May 04:17:09 04:25:47 62° 92° (E) 04:34:25 435.465 / 435.565
Oscar 19 28 May 04:29:35 04:32:10 14° 304° (WNW) 04:34:45 437.125/150
KKS-1 28 May 04:38:48 04:42:51 33° 263° (W) 04:46:55 437.445
CUBESAT XI-V 28 May 04:46:51 04:50:50 29° 66° (ENE) 04:54:53 437.345
Gurwin Techsat 1B 28 May 04:54:58 04:58:37 19° 301° (WNW) 05:02:16 435.225
MOZHAYETS 4 28 May 04:57:30 05:01:31 31° 265° (W) 05:05:35
ITAMSAT 1 28 May 05:10:34 05:15:05 30° 296° (WNW) 05:19:35 435.822/435.867
STARS 28 May 05:13:36 05:17:22 27° 264° (W) 05:21:09 437.465
ISS 28 May 05:16:26 05:17:47 12° 228° (SW) 05:19:09 145.825
YUBILEINY 28 May 05:17:19 05:24:47 33° 277° (W) 05:32:17 435.215
AO-7 28 May 05:29:03 05:37:28 83° 291° (WNW) 05:45:50 29.400- 29.500
HORYU 2 28 May 05:53:38 05:58:04 68° 103° (ESE) 06:02:29 437.375
NOAA 15 28 May 05:57:16 06:00:31 16° 90° (E) 06:03:44 137.62
Cosmos 2504 28 May 05:59:18 06:07:25 56° 269° (W) 06:15:55 435.465 / 435.565
Cubesat XI-IV 28 May 06:04:29 06:06:53 13° 88° (E) 06:09:16 437.490
NOAA 18 28 May 06:06:07 06:09:30 16° 90° (E) 06:12:54 137.9125
AO-85 28 May 06:11:29 06:16:41 47° 119° (ESE) 06:21:49 145.980
Cosmos 2491 28 May 06:15:24 06:23:10 34° 293° (WNW) 06:30:58 435.465 / 435.565
STRAND 1 28 May 06:17:14 06:21:14 24° 62° (ENE) 06:25:15 437.568
BRITE-PL 28 May 06:22:51 06:26:48 22° 90° (E) 06:30:29 437.365/2234.400
CUBESAT XI-V 28 May 06:23:53 06:28:07 34° 264° (W) 06:32:25 437.345
GOMX 1 28 May 06:45:32 06:48:21 16° 88° (E) 06:51:04 467.674
LilacSat-2 28 May 06:45:52 06:49:00 24° 95° (E) 06:52:08 437.200
CUTE-I 28 May 06:48:47 06:53:35 33° 96° (E) 06:58:22 437.470
GONETS M04 28 May 07:15:11 07:20:10 16° 54° (NE) 07:25:06
AO-7 28 May 07:23:02 07:29:06 23° 312° (NW) 07:35:11 29.400- 29.500
DOVE 4 28 May 07:31:08 07:34:24 20° 91° (E) 07:37:33 437.250
HORYU 2 28 May 07:31:38 07:34:06 15° 300° (WNW) 07:36:34 437.375
NOAA 15 28 May 07:35:33 07:40:51 73° 287° (WNW) 07:46:06 137.62
SO-50 28 May 07:35:34 07:38:49 18° 32° (NNE) 07:42:00 436.795
Cubesat XI-IV 28 May 07:42:17 07:47:41 89° 282° (WNW) 07:53:03 437.490
NOAA 18 28 May 07:45:16 07:50:45 75° 287° (WNW) 07:56:13 137.9125
PRISM 28 May 07:46:56 07:50:28 28° 67° (ENE) 07:54:02 437.425
AO-85 28 May 07:52:24 07:57:23 35° 317° (NW) 08:02:12 145.980
STRAND 1 28 May 07:55:10 08:00:05 50° 260° (W) 08:05:05 437.568
Cosmos 2504 28 May 07:57:48 07:58:57 10° 289° (WNW) 08:00:07 435.465 / 435.565
CINEMA 3 28 May 07:58:55 08:00:13 11° 88° (E) 08:01:29 145.822/145.860
BRITE-PL 28 May 08:00:37 08:05:36 48° 290° (WNW) 08:10:11 437.365/2234.400
HO-68 28 May 08:11:37 08:17:22 25° 92° (E) 08:23:05 435.675
CUTE 1.7 + AOD 2 28 May 08:13:09 08:15:54 16° 91° (E) 08:18:39 437.475
LilacSat-2 28 May 08:20:06 08:23:16 26° 292° (WNW) 08:26:27 437.200
GOMX 1 28 May 08:22:17 08:26:56 57° 288° (WNW) 08:31:16 467.674
CUTE-I 28 May 08:28:46 08:33:40 37° 294° (WNW) 08:38:33 437.470
COMPASS 1 28 May 08:32:56 08:35:11 14° 90° (E) 08:37:24 437.405
AAUSAT CUBESAT 2 28 May 08:35:27 08:36:59 12° 88° (E) 08:38:31 437.432
AIST 1 28 May 08:38:09 08:42:33 82° 81° (E) 08:46:52
Cosmos 2499 28 May 08:38:58 08:46:23 31° 66° (ENE) 08:54:00 435.465 / 435.565
CUBEBUG 2 28 May 08:44:18 08:45:32 11° 89° (E) 08:46:45 437.445
UNISAT 6 28 May 09:01:07 09:01:54 10° 58° (ENE) 09:02:41 437.425
TIGRISAT 28 May 09:07:41 09:09:10 12° 59° (ENE) 09:10:39 435.000
DOVE 4 28 May 09:08:12 09:12:20 39° 291° (WNW) 09:16:17 437.250
GONETS M04 28 May 09:10:13 09:18:55 69° 78° (ENE) 09:27:34
UWE-3 28 May 09:10:26 09:12:55 15° 91° (E) 09:15:26 435.000/436.395/437.385
FUNcube-1 28 May 09:14:24 09:15:00 10° 88° (E) 09:15:36 145.935
SO-50 28 May 09:15:19 09:20:05 81° 53° (NE) 09:24:39 436.795
NOAA 15 28 May 09:17:43 09:19:42 12° 306° (NW) 09:21:40 137.62
CANX-2 28 May 09:20:37 09:24:55 85° 282° (WNW) 09:29:13 2200.000
SEEDS 28 May 09:21:59 09:26:14 64° 100° (E) 09:30:27 437.485
PRISM 28 May 09:22:07 09:25:43 28° 264° (W) 09:29:22 437.425
Cubesat XI-IV 28 May 09:24:05 09:26:59 15° 304° (NW) 09:29:54 437.490
NOAA 18 28 May 09:28:06 09:30:30 13° 307° (NW) 09:32:54 137.9125
O/OREOS (USA 219) 28 May 09:33:09 09:37:25 41° 107° (ESE) 09:41:41 437.305
CINEMA 3 28 May 09:33:43 09:37:52 67° 286° (WNW) 09:41:59 145.822/145.860
AUBIESAT-1 28 May 09:37:23 09:40:42 78° 289° (WNW) 09:44:00 437.475
AO-85 28 May 09:37:27 09:39:23 12° 339° (NNW) 09:41:18 145.980
ANTELSAT 28 May 09:39:13 09:42:43 24° 66° (ENE) 09:46:11 437.575/2403.000
M-CUBED/EXP-1 PRIME 28 May 09:44:48 09:48:00 48° 293° (WNW) 09:51:09 437.505
CUTE 1.7 + AOD 2 28 May 09:47:52 09:52:02 50° 288° (WNW) 09:56:10 437.475
Oscar 11 28 May 09:54:30 09:58:30 34° 97° (E) 10:02:27 145.826/435.025
HO-68 28 May 09:58:31 10:05:39 69° 291° (WNW) 10:12:45 435.675
PCSat 28 May 10:01:04 10:06:22 58° 116° (ESE) 10:11:42 145.827
COMPASS 1 28 May 10:06:57 10:11:06 58° 287° (WNW) 10:15:15 437.405
AAUSAT CUBESAT 2 28 May 10:08:45 10:12:56 68° 286° (WNW) 10:17:07 437.432
ZACube-1 28 May 10:09:58 10:13:59 44° 99° (E) 10:18:03 437.345
POPSAT HIP 1 28 May 10:12:36 10:13:50 11° 59° (ENE) 10:15:05 437.405
QB50P1 28 May 10:12:47 10:14:09 11° 59° (ENE) 10:15:31 145.935-145.965
HUMSAT D 28 May 10:13:49 10:15:35 12° 89° (E) 10:17:20 437.325/437.525
QB50P2 28 May 10:14:50 10:16:40 13° 60° (ENE) 10:18:29 145.880/145.840
POLYITAN 1 28 May 10:17:14 10:19:07 13° 60° (ENE) 10:21:01 437.675
CUBEBUG 2 28 May 10:18:29 10:22:38 70° 286° (WNW) 10:26:49 437.445
NANOSAT C BR1 28 May 10:29:25 10:32:00 16° 62° (ENE) 10:34:35 145.865
Cosmos 2499 28 May 10:31:38 10:40:08 68° 267° (W) 10:48:54 435.465 / 435.565
DELFI C3 28 May 10:33:01 10:36:52 42° 98° (E) 10:40:42 145.870
UNISAT 6 28 May 10:33:35 10:37:57 87° 80° (E) 10:42:16 437.425
TIGRISAT 28 May 10:40:54 10:45:15 83° 256° (WSW) 10:49:34 435.000
UWE-3 28 May 10:45:39 10:49:42 51° 287° (WNW) 10:53:48 435.000/436.395/437.385
FUNcube-1 28 May 10:47:35 10:51:46 77° 285° (WNW) 10:56:00 145.935
JAS-2 28 May 10:47:54 10:51:41 15° 47° (NE) 10:55:31 435.910
BEESAT 3 28 May 10:51:37 10:53:46 14° 111° (ESE) 10:55:56 437.485
SO-50 28 May 10:57:36 10:59:51 13° 252° (WSW) 11:02:05 436.795
SEEDS 28 May 10:59:09 11:01:27 14° 298° (WNW) 11:03:44 437.485
CANX-2 28 May 10:59:39 11:00:04 10° 302° (WNW) 11:00:28 2200.000
CUSAT 1 28 May 11:04:43 11:10:12 28° 83° (E) 11:16:29 437.405
DUCHIFAT 1 28 May 11:06:10 11:09:59 34° 69° (ENE) 11:13:47 145.980
GONETS M04 28 May 11:08:01 11:15:00 28° 279° (W) 11:21:58
DANDE 28 May 11:09:02 11:11:35 13° 73° (ENE) 11:14:20 436.750
O/OREOS (USA 219) 28 May 11:13:12 11:16:58 25° 306° (NW) 11:20:44 437.305
ANTELSAT 28 May 11:15:19 11:19:18 34° 263° (W) 11:23:14 437.575/2403.000
BUGSAT 1 28 May 11:21:35 11:25:00 25° 66° (ENE) 11:28:24 437.445
Oscar 11 28 May 11:30:55 11:34:29 25° 294° (WNW) 11:38:02 145.826/435.025
ESTCUBE 1 28 May 11:40:39 11:44:11 22° 93° (E) 11:47:40 437.505/2401.250
POPSAT HIP 1 28 May 11:44:44 11:48:58 85° 253° (WSW) 11:53:14 437.405
QB50P1 28 May 11:45:03 11:49:18 84° 256° (WSW) 11:53:34 145.935-145.965
PCSat 28 May 11:45:28 11:50:07 28° 317° (NW) 11:54:47 145.827
ZACube-1 28 May 11:47:02 11:50:00 19° 296° (WNW) 11:52:59 437.345
HUMSAT D 28 May 11:47:30 11:51:38 64° 286° (WNW) 11:55:46 437.325/437.525
QB50P2 28 May 11:47:40 11:51:54 75° 257° (WSW) 11:56:09 145.880/145.840
HO-68 28 May 11:48:03 11:52:07 16° 312° (NW) 11:56:12 435.675
POLYITAN 1 28 May 11:50:08 11:54:22 73° 257° (WSW) 11:58:37 437.675
CUBEBUG 1 28 May 11:50:40 11:53:45 18° 92° (E) 11:56:48 437.445
DX 1 28 May 11:52:02 11:54:37 15° 91° (E) 11:57:10 434.975-435.025
BEESAT 2 28 May 11:54:11 11:57:50 36° 118° (ESE) 12:01:32 435.950
VELOX 1 28 May 11:59:27 12:02:54 22° 93° (E) 12:06:19 145.980
NANOSAT C BR1 28 May 12:03:10 12:07:19 55° 260° (W) 12:11:29 145.865
DELFI C3 28 May 12:08:38 12:11:27 19° 295° (WNW) 12:14:16 145.870
SPROUT 28 May 12:14:50 12:16:49 13° 89° (E) 12:18:47 437.525
BEESAT 3 28 May 12:27:06 12:31:00 60° 308° (NW) 12:34:56 437.485
Cosmos 2499 28 May 12:27:35 12:31:39 14° 287° (WNW) 12:35:48 435.465 / 435.565
Oscar 19 28 May 12:29:29 12:33:37 25° 62° (ENE) 12:37:46 437.125/150
